• In Hungary
  • List of Countries
  • For 7 days
  • Water Temperature
  • Satellite Maps
  • Weather Map
  • News
  • Weather Widgets
  • user-avatar
    Login

    Hourly Weather Przysypka

    Today, 15 December, Friday

    Time Temperature Precipitation Wind Pressure Humidity
    00:00 -1°C° 0.1 mm 6 mps 735 mmHg 78%
    01:00 0°C° 0 mm 5 mps 735 mmHg 81%
    02:00 0°C° 0 mm 5 mps 735 mmHg 82%
    03:00 -1°C° 0 mm 4 mps 735 mmHg 82%
    04:00 -1°C° 0 mm 4 mps 735 mmHg 83%
    05:00 -1°C° 0 mm 4 mps 735 mmHg 85%
    06:00 -1°C° 0 mm 3 mps 735 mmHg 87%
    07:00 -2°C° 0 mm 2 mps 735 mmHg 89%
    08:00 -1°C° 0 mm 2 mps 736 mmHg 88%
    09:00 +1°C° 0 mm 2 mps 736 mmHg 86%
    10:00 +1°C° 0 mm 2 mps 736 mmHg 85%
    11:00 +2°C° 0.3 mm 2 mps 736 mmHg 86%
    12:00 +2°C° 0.3 mm 2 mps 735 mmHg 87%
    13:00 +2°C° 0 mm 2 mps 735 mmHg 87%
    14:00 +2°C° 0.8 mm 2 mps 735 mmHg 89%
    15:00 +3°C° 0.8 mm 1 mps 736 mmHg 90%
    16:00 +2°C° 0.8 mm 1 mps 736 mmHg 92%
    17:00 +2°C° 0.2 mm 1 mps 736 mmHg 92%
    18:00 +1°C° 0.2 mm 2 mps 737 mmHg 92%
    19:00 +1°C° 0.2 mm 2 mps 737 mmHg 93%
    20:00 +1°C° 0 mm 2 mps 737 mmHg 93%
    21:00 -1°C° 0 mm 2 mps 738 mmHg 93%
    22:00 -1°C° 0 mm 3 mps 738 mmHg 94%
    23:00 -1°C° 0 mm 2 mps 739 mmHg 94%

    Tomorrow, 16 December, Saturday

    Time Temperature Precipitation Wind Pressure Humidity
    00:00 -2°C° 0 mm 2 mps 739 mmHg 94%
    01:00 -2°C° 0 mm 2 mps 739 mmHg 95%
    02:00 -2°C° 0 mm 2 mps 739 mmHg 95%
    03:00 -2°C° 0 mm 2 mps 739 mmHg 95%
    04:00 -3°C° 0 mm 2 mps 739 mmHg 96%
    05:00 -2°C° 0 mm 2 mps 739 mmHg 96%
    06:00 -2°C° 0 mm 2 mps 739 mmHg 96%
    07:00 -2°C° 0 mm 2 mps 739 mmHg 96%
    08:00 -2°C° 0 mm 2 mps 739 mmHg 95%
    09:00 -1°C° 0 mm 2 mps 740 mmHg 95%
    10:00 -1°C° 0 mm 3 mps 740 mmHg 94%
    11:00 0°C° 0 mm 3 mps 740 mmHg 92%
    12:00 0°C° 0 mm 3 mps 741 mmHg 90%
    13:00 0°C° 0 mm 3 mps 741 mmHg 89%
    14:00 -1°C° 0 mm 4 mps 741 mmHg 88%
    15:00 -1°C° 0 mm 4 mps 742 mmHg 88%
    16:00 -1°C° 0 mm 4 mps 742 mmHg 88%
    17:00 -1°C° 0 mm 4 mps 743 mmHg 88%
    18:00 -1°C° 0 mm 4 mps 743 mmHg 89%
    19:00 -1°C° 0 mm 5 mps 743 mmHg 89%
    20:00 -1°C° 0 mm 4 mps 744 mmHg 89%
    21:00 -1°C° 0 mm 4 mps 744 mmHg 89%
    22:00 -1°C° 0 mm 4 mps 745 mmHg 89%
    23:00 0°C° 0 mm 3 mps 745 mmHg 90%

    Day after tomorrow, 17 December, Sunday

    Time Temperature Precipitation Wind Pressure Humidity
    00:00 0°C° 0 mm 3 mps 745 mmHg 91%
    01:00 0°C° 0 mm 3 mps 746 mmHg 92%
    02:00 0°C° 0.1 mm 3 mps 746 mmHg 93%
    03:00 -1°C° 0.1 mm 3 mps 746 mmHg 93%
    04:00 -1°C° 0.1 mm 3 mps 746 mmHg 94%
    05:00 -1°C° 0.1 mm 3 mps 747 mmHg 94%
    06:00 -1°C° 0.1 mm 3 mps 747 mmHg 94%
    07:00 -1°C° 0.1 mm 3 mps 747 mmHg 94%
    08:00 -1°C° 0.1 mm 3 mps 748 mmHg 93%
    09:00 -1°C° 0.1 mm 3 mps 749 mmHg 92%
    10:00 0°C° 0.1 mm 3 mps 749 mmHg 91%
    11:00 0°C° 0.1 mm 3 mps 749 mmHg 90%
    12:00 0°C° 0.1 mm 3 mps 749 mmHg 90%
    13:00 0°C° 0.1 mm 3 mps 750 mmHg 89%
    14:00 -1°C° 0.1 mm 2 mps 750 mmHg 90%
    15:00 -1°C° 0.1 mm 2 mps 751 mmHg 91%
    16:00 -2°C° 0.1 mm 2 mps 751 mmHg 92%
    17:00 -2°C° 0 mm 2 mps 752 mmHg 92%
    18:00 -2°C° 0 mm 2 mps 752 mmHg 93%
    19:00 -3°C° 0 mm 2 mps 753 mmHg 93%
    20:00 -3°C° 0 mm 2 mps 753 mmHg 93%
    21:00 -3°C° 0 mm 2 mps 754 mmHg 93%
    22:00 -3°C° 0 mm 2 mps 754 mmHg 92%
    23:00 -3°C° 0 mm 2 mps 754 mmHg 92%

    18 December, Monday

    Time Temperature Precipitation Wind Pressure Humidity
    00:00 -3°C° 0 mm 2 mps 754 mmHg 92%
    01:00 -3°C° 0 mm 2 mps 755 mmHg 92%
    02:00 -3°C° 0 mm 2 mps 754 mmHg 92%
    03:00 -4°C° 0 mm 2 mps 754 mmHg 92%
    04:00 -4°C° 0 mm 2 mps 754 mmHg 92%
    05:00 -4°C° 0 mm 2 mps 754 mmHg 93%
    06:00 -4°C° 0 mm 2 mps 754 mmHg 93%
    07:00 -3°C° 0 mm 2 mps 754 mmHg 93%
    08:00 -3°C° 0 mm 2 mps 754 mmHg 93%
    09:00 -3°C° 0 mm 2 mps 755 mmHg 92%
    10:00 -2°C° 0 mm 3 mps 755 mmHg 91%
    11:00 -2°C° 0 mm 3 mps 755 mmHg 90%
    12:00 -2°C° 0 mm 3 mps 755 mmHg 89%
    13:00 -1°C° 0 mm 3 mps 754 mmHg 89%
    14:00 -2°C° 0 mm 2 mps 755 mmHg 89%
    15:00 -2°C° 0 mm 2 mps 755 mmHg 89%
    16:00 -2°C° 0 mm 2 mps 755 mmHg 89%
    17:00 -2°C° 0 mm 2 mps 756 mmHg 89%
    18:00 0°C° 0 mm 1 mps 757 mmHg 89%
    19:00 0°C° 0 mm 1 mps 757 mmHg 89%
    20:00 -1°C° 0 mm 1 mps 758 mmHg 89%
    21:00 -1°C° 0 mm 1 mps 758 mmHg 89%
    22:00 -1°C° 0 mm 1 mps 759 mmHg 89%
    23:00 -1°C° 0 mm 1 mps 759 mmHg 89%

    19 December, Tuesday

    Time Temperature Precipitation Wind Pressure Humidity
    00:00 -1°C° 0 mm 1 mps 760 mmHg 89%
    01:00 -1°C° 0 mm 1 mps 760 mmHg 89%
    02:00 -1°C° 0 mm 1 mps 760 mmHg 89%
    03:00 -1°C° 0 mm 1 mps 761 mmHg 89%
    04:00 -2°C° 0 mm 0 mps 761 mmHg 89%
    05:00 -2°C° 0 mm 0 mps 761 mmHg 88%
    06:00 -2°C° 0 mm 0 mps 762 mmHg 88%
    07:00 -2°C° 0 mm 0 mps 762 mmHg 88%
    08:00 -2°C° 0 mm 0 mps 763 mmHg 87%
    09:00 -2°C° 0 mm 0 mps 763 mmHg 86%
    10:00 -1°C° 0 mm 0 mps 764 mmHg 85%
    11:00 -1°C° 0 mm 0 mps 764 mmHg 84%
    12:00 0°C° 0 mm 1 mps 764 mmHg 83%
    13:00 0°C° 0 mm 1 mps 764 mmHg 83%
    14:00 0°C° 0 mm 1 mps 764 mmHg 85%
    15:00 -2°C° 0 mm 0 mps 764 mmHg 87%
    16:00 -2°C° 0 mm 0 mps 764 mmHg 89%
    17:00 -1°C° 0 mm 1 mps 764 mmHg 90%
    18:00 -2°C° 0 mm 1 mps 764 mmHg 90%
    19:00 -2°C° 0 mm 1 mps 764 mmHg 90%
    20:00 -1°C° 0 mm 1 mps 764 mmHg 90%
    21:00 -3°C° 0 mm 2 mps 764 mmHg 91%
    22:00 -3°C° 0 mm 2 mps 764 mmHg 91%
    23:00 -3°C° 0 mm 2 mps 764 mmHg 91%

    20 December, Wednesday

    Time Temperature Precipitation Wind Pressure Humidity
    00:00 -4°C° 0 mm 3 mps 764 mmHg 91%
    01:00 -2°C° 0 mm 3 mps 763 mmHg 92%
    02:00 -2°C° 0.1 mm 3 mps 763 mmHg 93%
    03:00 -2°C° 0.1 mm 3 mps 762 mmHg 94%
    04:00 -2°C° 0.1 mm 4 mps 762 mmHg 95%
    05:00 -2°C° 0.4 mm 4 mps 762 mmHg 95%
    06:00 -2°C° 0.4 mm 4 mps 761 mmHg 95%
    07:00 -2°C° 0.4 mm 4 mps 761 mmHg 96%
    08:00 -1°C° 0.5 mm 4 mps 761 mmHg 96%
    09:00 -1°C° 0.5 mm 4 mps 761 mmHg 96%
    10:00 -1°C° 0.5 mm 4 mps 761 mmHg 96%
    11:00 -1°C° 0.6 mm 4 mps 760 mmHg 97%
    12:00 -1°C° 0.6 mm 4 mps 760 mmHg 97%
    13:00 -1°C° 0.6 mm 4 mps 759 mmHg 98%
    14:00 -1°C° 0.4 mm 4 mps 759 mmHg 98%
    15:00 0°C° 0.4 mm 4 mps 759 mmHg 98%
    16:00 0°C° 0.4 mm 4 mps 759 mmHg 98%
    17:00 0°C° 0.2 mm 4 mps 759 mmHg 98%
    18:00 +1°C° 0.2 mm 4 mps 759 mmHg 98%
    19:00 +1°C° 0.2 mm 4 mps 759 mmHg 98%
    20:00 +1°C° 0.1 mm 5 mps 759 mmHg 98%
    21:00 +1°C° 0.1 mm 5 mps 759 mmHg 98%
    22:00 +2°C° 0.1 mm 5 mps 759 mmHg 98%
    23:00 +2°C° 0.1 mm 5 mps 759 mmHg 97%
    Show more